Location: ?
(35.4996°N, 139.3166°E)
Time: 04:48:18
(UTC+00:00)

Cosmos 1943 Rocket - Pass Details

Date: 18 April 2024
Orbit: 810 x 845 km, 71.0° (Epoch: 23 May)

Event Time Altitude Azimuth Distance (km) Brightness Sun altitude
Rises 16:54:02 0° 347° (NNW) 3,404 5.8 -33.9°
Reaches altitude 10° 16:56:41 10° 355° (N) 2,468 5.1 -33.5°
Maximum altitude 17:01:55 38° 63° (ENE) 1,275 3.5 -32.8°
Enters shadow 17:05:02 21° 117° (ESE) 1,790 4.0 -32.4°
